Change the Weather History Date:

Friday, October 19, 2012

  Actual Average Record
Temperature  
Mean Temperature 52 °F -  
Max Temperature 66 °F 67 °F 88 °F (2003)
Min Temperature 39 °F 41 °F 28 °F (1999)
Degree Days  
Heating Degree Days 12    
Growing Degree Days 2 (Base 50)    
Moisture  
Dew Point 22 °F    
Average Humidity 31    
Maximum Humidity 62    
Minimum Humidity 15    
Precipitation  
Precipitation 0.00 in - - ()
Sea Level Pressure  
Sea Level Pressure 29.85 in    
Wind  
Wind Speed 15 mph (NW)    
Max Wind Speed 26 mph    
Max Gust Speed 34 mph    
Visibility 10 miles    
Events      
Averages and records for this station are not official NWS values.
T = Trace of Precipitation, MM = Missing Value Source: NWS Daily Summary

Daily Weather History Graph

Daily Weather History Graph

Search for Another Location

Airport or City:

Trip Planner

Search our weather history database for the weather conditions in past years. The results will help you decide how hot, cold, wet, or windy it might be!

Date:

Astronomy

Oct. 19, 2012 Rise Set
Actual Time 7:44 AM CDT 6:47 PM CDT
Civil Twilight 7:17 AM CDT 7:14 PM CDT
Nautical Twilight 6:47 AM CDT 7:44 PM CDT
Astronomical Twilight 6:16 AM CDT 8:15 PM CDT
Moon 12:25 PM CDT (10/19) 10:30 PM CDT (10/19)
Length of Visible Light 11h 56m
Length of Day
11h 03m
Waxing Crescent, 24% of the Moon is Illuminated
Oct 19
Waxing Crescent
Oct 21
First Quarter
Oct 29
Full
Nov 6
Last Quarter
Nov 13
New

Hourly Weather History & Observations

Time (CDT) Temp. Windchill Dew Point Humidity Pressure Visibility Wind Dir Wind Speed Gust Speed Precip Events Conditions
12:52 AM 52.0 °F - 23.0 °F 32% 29.84 in 10.0 mi WNW 15.0 mph - N/A   Clear
1:52 AM 51.1 °F - 21.9 °F 32% 29.84 in 10.0 mi WNW 17.3 mph - N/A   Clear
2:52 AM 50.0 °F - 21.9 °F 33% 29.84 in 10.0 mi WNW 16.1 mph - N/A   Clear
3:52 AM 48.9 °F - 21.9 °F 35% 29.83 in 10.0 mi WNW 13.8 mph 23.0 mph N/A   Clear
4:52 AM 48.0 °F - 21.0 °F 34% 29.85 in 10.0 mi WNW 16.1 mph - N/A   Clear
5:52 AM 46.0 °F 39.9 °F 21.0 °F 37% 29.86 in 10.0 mi NW 13.8 mph - N/A   Clear
6:52 AM 46.0 °F 39.0 °F 19.0 °F 34% 29.87 in 10.0 mi NW 17.3 mph - N/A   Clear
7:52 AM 44.1 °F 36.5 °F 16.0 °F 32% 29.88 in 10.0 mi NW 17.3 mph - N/A   Clear
8:52 AM 46.9 °F - 16.0 °F 29% 29.89 in 10.0 mi NW 19.6 mph 25.3 mph N/A   Clear
9:52 AM 52.0 °F - 18.0 °F 26% 29.91 in 10.0 mi NW 26.5 mph 34.5 mph N/A   Clear
10:52 AM 54.0 °F - 23.0 °F 30% 29.91 in 10.0 mi NNW 20.7 mph 33.4 mph N/A   Clear
11:52 AM 57.9 °F - 25.0 °F 28% 29.91 in 10.0 mi NNW 17.3 mph 28.8 mph N/A   Clear
12:52 PM 62.1 °F - 25.0 °F 24% 29.90 in 10.0 mi NW 18.4 mph 25.3 mph N/A   Clear
1:52 PM 63.0 °F - 23.0 °F 22% 29.87 in 10.0 mi NNW 17.3 mph 29.9 mph N/A   Clear
2:52 PM 64.9 °F - 21.9 °F 19% 29.84 in 10.0 mi NW 19.6 mph 23.0 mph N/A   Clear
3:52 PM 66.0 °F - 21.9 °F 19% 29.83 in 10.0 mi WNW 15.0 mph 25.3 mph N/A   Clear
4:52 PM 66.9 °F - 21.0 °F 17% 29.82 in 10.0 mi WNW 9.2 mph - N/A   Clear
5:52 PM 64.9 °F - 15.1 °F 15% 29.81 in 10.0 mi WNW 12.7 mph - N/A   Clear
6:52 PM 55.9 °F - 17.1 °F 22% 29.82 in 10.0 mi NW 4.6 mph - N/A   Clear
7:52 PM 46.9 °F - 23.0 °F 39% 29.84 in 10.0 mi Calm Calm - N/A   Clear
8:52 PM 45.0 °F - 25.0 °F 46% 29.83 in 10.0 mi Calm Calm - N/A   Clear
10:52 PM 39.0 °F 36.8 °F 27.0 °F 62% 29.83 in 10.0 mi ENE 3.5 mph - N/A   Clear
11:52 PM 41.0 °F - 27.0 °F 57% 29.83 in 10.0 mi Calm Calm - N/A   Clear